Regional Weather Roundup
Issued by NWS

Home | Current Version | Previous Version | Graphics & Text | Print | Product List | Glossary On
Versions: 1 2 3 4 5 6 7 8 9 10 11 12 13 14 15 16 17 18 19 20 21 22 23 24 25 26 27 28 29 30 31 32 33 34 35 36 37 38 39 40 41 42 43 44 45 46 47 48 49 50
000
ASUS43 KMKX 281311
RWRWI

WISCONSIN REGIONAL WEATHER ROUNDUP
NATIONAL WEATHER SERVICE MILWAUKEE/SULLIVAN WI
800 AM CDT FRI AUG 28 2015

NOTE: "FAIR" INDICATES FEW OR NO CLOUDS BELOW 12,000 FEET WITH NO
SIGNIFICANT WEATHER AND/OR OBSTRUCTIONS TO VISIBILITY.

WIZ001-002-006>008-014>016-023>028-281400-
NORTHWEST WISCONSIN

CITY           SKY/WX    TMP DP  RH WIND       PRES   REMARKS
SUPERIOR ARPT  CLOUDY    58  55  88 CALM      29.98S
ASHLAND        PTSUNNY   64  61  90 SW7       30.00S
HAYWARD        MOSUNNY   62  59  90 S7        30.02S
SIREN          MOSUNNY   64  60  90 SW6       30.01S
CUMBERLAND     PTSUNNY   57  55  94 S3        30.03S
RICE LAKE      PTSUNNY   60  58  94 CALM      30.05S
CHETEK         PTSUNNY  N/A N/A N/A CALM      30.04S
LADYSMITH      PTSUNNY   60  58  94 CALM      30.06S
EAU CLAIRE     CLOUDY    63  58  83 S5        30.04R
MENOMONIE      CLOUDY    61  60  96 CALM      30.04S
NEW RICHMOND   PTSUNNY   61  60  97 CALM      30.04R
OSCEOLA        PTSUNNY   60  60 100 CALM      30.05R
$$

WIZ003>005-009-010-017-018-281400-
NORTH CENTRAL WISCONSIN

CITY           SKY/WX    TMP DP  RH WIND       PRES   REMARKS
MANITOWISH WTR MOSUNNY   60  59  97 SW7       30.05S
ARBOR VITAE    PTSUNNY   62  59  91 S7        30.06S
WOODRUFF       PTSUNNY   62  59  91 S7        30.06S
RHINELANDER    MOSUNNY   61  57  87 SW9       30.08S
EAGLE RIVER    MOSUNNY   61  58  92 SW5       30.06S
LAND O LAKES   MOSUNNY   61  58  92 CALM      30.06F
PHILLIPS       MOSUNNY   59  58  96 S7        30.05R
TOMAHAWK       PTSUNNY   58  57  96 CALM      30.08R
MEDFORD        PTSUNNY   58  57  97 S6        30.07S
MERRILL        PTSUNNY   60  59  97 CALM      30.08F
$$

WIZ029-030-035-036-043>047-281400-
CENTRAL WISCONSIN

CITY           SKY/WX    TMP DP  RH WIND       PRES   REMARKS
WAUSAU         PTSUNNY   60  58  92 SE6       30.07S
MOSINEE        MOSUNNY   57  57 100 SE5       30.09F
MARSHFIELD     CLOUDY    60  56  86 S6        30.08S
STEVENS POINT  PTSUNNY   60  56  89 S7        30.10S
WAUPACA        PTSUNNY   60  59  97 SE3       30.11S
WAUTOMA        PTSUNNY   60  59  97 CALM      30.11S
WISC RAPIDS    CLOUDY    61  56  83 S7        30.09F
CAMP DOUGLAS   CLOUDY    61  61 100 S6        30.08R
$$

WIZ011>013-019>022-031-037>040-048>050-281400-
NORTHEAST WISCONSIN

CITY           SKY/WX    TMP DP  RH WIND       PRES   REMARKS
ANTIGO         PTSUNNY   59  58  94 S7        30.09F
SHAWANO        MOSUNNY   61  58  90 CALM      30.10F
OCONTO         PTSUNNY   60  60 100 SW3       30.10F
STURGEON BAY   CLOUDY    61  54  77 S10       30.13F
GREEN BAY      MOSUNNY   59  56  89 CALM      30.12S FOG
MANITOWOC      MOSUNNY   55  53  93 MISG      30.14S FOG
APPLETON       PTSUNNY   59  57  94 VRB6      30.10S
CLINTONVILLE   PTSUNNY   59  55  88 CALM      30.10F FOG
OSHKOSH        MOSUNNY   58  54  86 S8        30.12S
$$

WIZ032>034-041-042-053>061-281400-
SOUTHWEST WISCONSIN

CITY           SKY/WX    TMP DP  RH WIND       PRES   REMARKS
LA CROSSE      CLOUDY    66  60  81 S7        30.06R
SPARTA         CLOUDY    64  57  78 SW3       30.08S
VIROQUA        CLOUDY    61  61 100 S5        30.09F
BOSCOBEL       CLOUDY    62  59  90 CALM      30.10R
PRAIRIE DU CHI CLOUDY    63  58  82 E7        30.08F
PLATTEVILLE    CLOUDY    61  60  96 SE6       30.10F
$$

WIZ056-057-062-063-064-067-068-281400-
SOUTH CENTRAL WISCONSIN

CITY           SKY/WX    TMP DP  RH WIND       PRES   REMARKS
REEDSBURG      CLOUDY    60  58  92 CALM      30.10R
BARABOO/DELLS  CLOUDY    61  57  86 S5        30.11R
LONE ROCK      CLOUDY    60  58  92 E7        30.10S FOG
MINERAL POINT  CLOUDY    61  59  94 SE5       30.10F FOG
MADISON        CLOUDY    62  56  80 S7        30.12S
MIDDLETON      CLOUDY    63  58  83 S3        30.12S
WATERTOWN      MOSUNNY   56  56 100 CALM      30.13S FOG
MONROE         CLOUDY    59  55  88 S6        30.12F
JANESVILLE     PTSUNNY   61  59  94 CALM      30.13R FOG
$$

WIZ051-052-058>065-066-070>072-281400-
SOUTHEAST WISCONSIN

CITY           SKY/WX    TMP DP  RH WIND       PRES   REMARKS
MILWAUKEE      PTSUNNY   62  57  83 S6        30.15S HAZE
WAUKESHA       SUNNY     55  55 100 CALM      30.15S FOG
MILWAUKEE/TIMM SUNNY     61  55  82 CALM      30.15S HAZE
RACINE         MOSUNNY   63  58  83 CALM      30.16R
BURLINGTON     MOSUNNY   54  54  99 CALM      30.14S FOG
KENOSHA        PTSUNNY   62  59  90 CALM      30.15R FOG
FOND DU LAC    MOSUNNY   59  56  89 S6        30.13S FOG
SHEBOYGAN      MOSUNNY   59  56  89 SW3       30.13F FOG
WEST BEND      MOSUNNY   57  54  88 CALM      30.14S FOG
JUNEAU         MOSUNNY   56  54  94 SE3       30.14S FOG
$$

LSZ147-162-281400-
LAKE SUPERIOR

STATION/POSITION TIME  TEMP    WIND        PRES    WAVE
                       AIR SEA DIR/SP/G            HT/PER
                 (UTC) (F)     (DEG/KT/KT) (MB)    (FT/S)
W MID LAKE BUOY  1250   58 55  210/ 10/ 10 1015.1R   0
DEVILS ISLAND    1300   64     200/  6/  8 1015.0F
PORT WING        1200   63     200/  5/  8 1015.2S
SAXON HARBOR     1240   65     190/  4/  6 1015.2S
$$

LMZ867-665-643>646-281400-
LAKE MICHIGAN

STATION/POSITION TIME  TEMP    WIND        PRES    WAVE
                       AIR SEA DIR/SP/G            HT/PER
                 (UTC) (F)     (DEG/KT/KT) (MB)    (FT/S)
CHAMBERS ISLAND  1200   61     180/  4/ 10 1019.6R
S GREEN BAY BUOY 1300   63     190/ 12/ 16 1020.8F
N MID LAKE BUOY  1250   63 64  210/ 17/ 21 1019.3R   3/ 5
NORTHPORT PIER   1201   60     200/  3/  7 1019.6R
SISTER BAY       1249   65     200/ 12/ 16   N/A
ALGOMA LAKESHORE 1114             CALM       N/A
KEWAUNEE LAKESHO 1200   54     170/  4/  6 1019.2R
SHEBOYGAN LAKESH 1300   56     150/  5/  5 1020.8F
PORT WASHINGTON  1200   51      CALM  /  1 1021.3R
ATWATER BUOY     1300   54 47   80/  4/  4 1022.0R
MILWAUKEE LAKESH 1200   57     200/  2/  3   N/A
S MID LAKE BUOY  1250   67 67  180/ 10/ 12 1020.7R   2/ 4
KENOSHA   LAKESH 1300   59        CALM     1020.7R
$$

TC  - TEMPERATURE IN CELSIUS
VSB - VISIBILITY IN STATUTE MILES
WCI - WIND CHILL INDEX
HX  - HEAT INDEX



USA.gov is the U.S. government's official web portal to all federal, state and local government web resources and services.